Home > Weather > Easter Island > Past weeks

Flag for Chile Weather for the Past 2 Weeks in Easter Island, Chile

Now
81 °F

Partly sunny.


Feels Like: 83 °F
Forecast: 72 / 80 °F
Wind: 22 mph from Southeast

Location: Isla De Pascua

Current Time: Feb 14, 2016 at 2:17:17 PM

Latest Report: Feb 14, 2016 at 1:00 PM


Visibility: N/A

Pressure: 30.15 "Hg

Humidity: 62%

Dew point: 66 °F

Location of Easter IslandLocation

Historic Weather in Easter Island — Graph

°F

Easter Island Temperature Yesterday

Maximum temperature yesterday: 81 °F (at 1:00 PM)
Minimum temperature yesterday: 72 °F (at 11:00 PM)
Average temperature yesterday: 76 °F

High & Low Weather Summary for the Past Weeks

 TemperatureHumidityPressure
High82 °F (Jan 30, 4:00 PM)94% (Feb 1, 5:00 AM)30.24 "Hg (Feb 1, 5:00 AM)
Low66 °F (Feb 6, 4:00 AM)51% (Feb 10, 4:00 PM)30.07 "Hg (Feb 5, 7:00 PM)
Average75 °F75%30.16 "Hg
* Reported Jan 30 1:00 PM — Feb 14 1:00 PM, Easter Island, Weather by CustomWeather, © 2016

Note: Actual official high and low records may vary slightly from our data, if they occured in-between our weather recording intervals... More about our weather records

Advertising

Easter Island Weather History for the Previous 24 Hours

 ConditionsComfort  
Time TempWeatherWind HumidityBarometerVisibility
1:00 PM
Sun, Feb 14
81 °FPartly sunny.22 mph62%30.15 "HgN/A
12:00 PM79 °FPartly sunny.20 mph65%30.15 "HgN/A
11:00 AM77 °FPartly sunny.17 mph69%30.15 "HgN/A
10:00 AM75 °FPartly sunny.16 mph78%30.15 "HgN/A
9:00 AM75 °FScattered clouds.15 mph74%30.15 "HgN/A
8:00 AM73 °FPassing clouds.12 mph78%30.12 "HgN/A
7:00 AM73 °FPassing clouds.15 mph78%30.09 "HgN/A
6:00 AM73 °FPassing clouds.15 mph74%30.09 "HgN/A
5:00 AM73 °FPassing clouds.15 mph78%30.09 "HgN/A
4:00 AM73 °FPassing clouds.14 mph78%30.12 "HgN/A
3:00 AM73 °FPassing clouds.16 mph74%30.12 "HgN/A
2:00 AM73 °FPassing clouds.20 mph74%30.15 "HgN/A
1:00 AM73 °FPassing clouds.16 mph78%30.15 "HgN/A
12:00 AM72 °FPassing clouds.17 mph83%30.15 "HgN/A
11:00 PM
Sat, Feb 13
72 °FRain showers. Passing clouds.17 mph94%30.15 "Hg3 mi
10:00 PM75 °FSprinkles. Scattered clouds.17 mph74%30.12 "Hg5 mi
9:00 PM75 °FScattered clouds.13 mph74%30.12 "HgN/A
8:00 PM77 °FScattered clouds.17 mph69%30.12 "HgN/A
7:00 PM79 °FPartly sunny.18 mph70%30.12 "HgN/A
6:00 PM79 °FScattered clouds.18 mph70%30.12 "HgN/A
5:00 PM81 °FScattered clouds.18 mph66%30.12 "HgN/A
4:00 PM81 °FScattered clouds.18 mph66%30.12 "HgN/A
3:00 PM81 °FScattered clouds.20 mph66%30.15 "HgN/A
2:00 PM81 °FScattered clouds.17 mph62%30.15 "HgN/A
Weather by CustomWeather, © 2016

See weather overviewHow to use our weather pages